Regional Weather Roundup
Issued by NWS Sioux Falls, SD

Home | Current Version | Previous Version | Graphics & Text | Print | Product List | Glossary On
Versions: 1 2 3 4 5 6 7 8 9 10 11 12 13 14 15 16 17 18 19 20 21 22 23 24 25 26 27 28 29 30 31 32 33 34 35 36 37 38 39 40 41 42 43 44 45 46 47 48 49 50
000
ASUS43 KFSD 230402
RWRFSD

WEATHER ROUNDUP FOR SE SOUTH DAKOTA/SW MINNESOTA/NW IOWA
NATIONAL WEATHER SERVICE SIOUX FALLS SD
1100 PM CDT FRI AUG 22 2014

NOTE: "FAIR" INDICATES FEW OR NO CLOUDS BELOW 12,000 FEET WITH NO
SIGNIFICANT WEATHER AND OR OBSTRUCTIONS TO VISIBILITY.


SDZ038>040-050-052>070-230500-
SOUTHEAST SOUTH DAKOTA

CITY           SKY/WX    TMP DP  RH WIND       PRES   REMARKS
CHAMBERLAIN    CLOUDY    72  68  89 E7        29.99R
HURON          CLOUDY    76  68  76 E8        29.99R
MADISON        FAIR      73  73 100 E8        30.02R
MITCHELL       CLOUDY    75  70  84 SE7       29.98R
SIOUX FALLS    MOCLDY    75  69  81 E9        30.00S
WINNER         LGT RAIN  74  69  85 E6        29.99R
YANKTON        MOCLDY    73  72  94 NE7       29.96F
$$

MNZ071-072-080-081-089-090-097-098-230500-
SOUTHWEST MINNESOTA

CITY           SKY/WX    TMP DP  RH WIND       PRES   REMARKS
FAIRMONT       MOCLDY    66  64  94 E7        30.00F
JACKSON        MOCLDY    70  66  88 E5        30.02F
LUVERNE        MOCLDY    72  68  88 E5        30.00F
MARSHALL       CLOUDY    77  68  73 SE7       30.00R
MONTEVIDEO     CLOUDY    73  72  94 NE6       30.02R
PIPESTONE      MOCLDY    73  70  88 SE5       30.02S
REDWOOD FALLS  MOCLDY    74  70  87 SE6       30.00S
TRACY          CLOUDY    74  71  88 SE3       30.01S
WINDOM         PTCLDY    72  68  88 NE3       30.02S
WORTHINGTON      N/A     70  68  94 NE5       30.03F
$$

IAZ001>003-012>014-020>022-031-032-NEZ013-014-SDZ071-230500-
NORTHWEST IOWA

CITY           SKY/WX    TMP DP  RH WIND       PRES   REMARKS
CHEROKEE       CLOUDY    75  74  95 CALM      29.98R
DENISON        CLOUDY    72  72 100 CALM      29.94S
ESTHERVILLE    MOCLDY    72  70  93 N10       29.98F
LE MARS        CLOUDY    77  73  88 NE6       29.98R
ORANGE CITY    CLOUDY    75  70  83 E7        29.99S
SHELDON        CLOUDY    72  70  94 NE7       29.97F
SIOUX CITY     CLOUDY    77  72  84 CALM      29.96R
SPENCER        CLOUDY    74  69  85 NE9       29.99S
STORM LAKE     CLOUDY    73  73 100 E5        30.00R
$$

ABBREVIATIONS USED IN REMARKS
   TC - TEMPERATURE IN CELSIUS
  WCI - WIND CHILL INDEX
   HX - HEAT INDEX
  VSB - VISIBILITY




USA.gov is the U.S. government's official web portal to all federal, state and local government web resources and services.